TimeCDT,TemperatureF,Dew PointF,Humidity,Sea Level PressureIn,VisibilityMPH,Wind Direction,Wind SpeedMPH,Gust SpeedMPH,PrecipitationIn,Events,Conditions,WindDirDegrees,DateUTC
12:15 AM,68.0,44.6,43,29.92,10.0,South,8.1,-,N/A,,Unknown,180,2013-09-15 05:15:00
12:35 AM,69.8,44.6,40,29.92,10.0,South,10.4,-,N/A,,Unknown,180,2013-09-15 05:35:00
12:55 AM,69.8,44.6,40,29.91,10.0,South,11.5,-,N/A,,Unknown,190,2013-09-15 05:55:00
1:15 AM,69.8,44.6,40,29.91,10.0,South,13.8,-,N/A,,Unknown,190,2013-09-15 06:15:00
1:35 AM,69.8,44.6,40,29.90,10.0,SSW,13.8,19.6,N/A,,Unknown,200,2013-09-15 06:35:00
1:55 AM,69.8,46.4,43,29.90,10.0,South,15.0,-,N/A,,Unknown,190,2013-09-15 06:55:00
2:15 AM,69.8,46.4,43,29.90,10.0,South,12.7,-,N/A,,Unknown,190,2013-09-15 07:15:00
2:35 AM,69.8,46.4,43,29.89,10.0,South,12.7,-,N/A,,Unknown,190,2013-09-15 07:35:00
2:55 AM,68.0,48.2,49,29.89,10.0,SSW,9.2,16.1,N/A,,Unknown,200,2013-09-15 07:55:00
3:15 AM,66.2,50.0,56,29.88,9.0,SSW,11.5,-,N/A,,Unknown,200,2013-09-15 08:15:00
3:35 AM,68.0,51.8,56,29.88,7.0,SSW,10.4,17.3,N/A,,Overcast,200,2013-09-15 08:35:00
3:55 AM,64.4,53.6,68,29.88,10.0,SSW,8.1,-,0.06,,Overcast,200,2013-09-15 08:55:00
4:15 AM,64.4,53.6,68,29.87,10.0,South,10.4,-,N/A,,Overcast,180,2013-09-15 09:15:00
4:35 AM,64.4,53.6,68,29.88,10.0,South,10.4,-,N/A,,Overcast,190,2013-09-15 09:35:00
4:55 AM,66.2,53.6,64,29.88,10.0,SSW,12.7,18.4,N/A,,Overcast,210,2013-09-15 09:55:00
5:15 AM,64.4,55.4,73,29.87,9.0,SSW,10.4,18.4,N/A,,Overcast,200,2013-09-15 10:15:00
5:35 AM,64.4,57.2,77,29.87,10.0,SSW,10.4,18.4,N/A,,Overcast,210,2013-09-15 10:35:00
5:55 AM,64.4,57.2,77,29.87,10.0,SSW,11.5,18.4,0.02,,Overcast,210,2013-09-15 10:55:00
6:15 AM,64.4,57.2,77,29.87,10.0,SSW,8.1,17.3,N/A,,Overcast,210,2013-09-15 11:15:00
6:35 AM,64.4,57.2,77,29.88,10.0,SSW,9.2,-,N/A,,Unknown,210,2013-09-15 11:35:00
6:55 AM,64.4,59.0,83,29.89,10.0,SW,9.2,-,N/A,,Overcast,220,2013-09-15 11:55:00
7:15 AM,64.4,59.0,83,29.90,10.0,SW,10.4,-,N/A,,Overcast,220,2013-09-15 12:15:00
7:35 AM,66.2,60.8,83,29.90,10.0,SW,9.2,-,N/A,,Mostly Cloudy,220,2013-09-15 12:35:00
7:55 AM,66.2,60.8,83,29.90,10.0,WSW,8.1,-,N/A,,Scattered Clouds,240,2013-09-15 12:55:00
8:15 AM,66.2,60.8,83,29.90,10.0,WSW,8.1,-,N/A,,Clear,240,2013-09-15 13:15:00
8:35 AM,66.2,60.8,83,29.88,10.0,WSW,4.6,11.5,N/A,,Light Drizzle,250,2013-09-15 13:35:00
8:55 AM,66.2,62.6,88,29.90,10.0,SW,8.1,-,N/A,,Clear,220,2013-09-15 13:55:00
9:15 AM,66.2,62.6,88,29.90,10.0,SW,6.9,-,N/A,,Partly Cloudy,230,2013-09-15 14:15:00
9:35 AM,68.0,62.6,83,29.91,10.0,SW,9.2,-,N/A,,Mostly Cloudy,220,2013-09-15 14:35:00
9:55 AM,68.0,62.6,83,29.93,10.0,SW,9.2,15.0,N/A,,Overcast,230,2013-09-15 14:55:00
10:15 AM,68.0,62.6,83,29.94,10.0,WSW,10.4,-,N/A,,Overcast,250,2013-09-15 15:15:00
10:35 AM,68.0,62.6,83,29.95,10.0,West,8.1,-,N/A,,Overcast,260,2013-09-15 15:35:00
10:55 AM,68.0,62.6,83,29.96,8.0,West,9.2,-,N/A,,Overcast,270,2013-09-15 15:55:00
11:15 AM,68.0,62.6,83,29.97,10.0,West,5.8,11.5,N/A,,Overcast,280,2013-09-15 16:15:00
11:35 AM,69.8,57.2,64,29.98,10.0,NNW,11.5,19.6,N/A,,Overcast,340,2013-09-15 16:35:00
11:55 AM,68.0,59.0,73,29.99,10.0,North,11.5,20.7,N/A,,Overcast,350,2013-09-15 16:55:00
12:15 PM,66.2,59.0,78,30.00,10.0,North,15.0,-,N/A,,Overcast,360,2013-09-15 17:15:00
12:35 PM,69.8,59.0,68,30.00,10.0,North,17.3,-,N/A,,Overcast,10,2013-09-15 17:35:00
12:55 PM,69.8,59.0,68,30.01,10.0,North,12.7,21.9,N/A,,Overcast,360,2013-09-15 17:55:00
1:15 PM,69.8,57.2,64,30.01,10.0,North,13.8,20.7,N/A,,Overcast,360,2013-09-15 18:15:00
1:35 PM,69.8,57.2,64,30.02,10.0,North,13.8,20.7,N/A,,Overcast,350,2013-09-15 18:35:00
1:55 PM,68.0,57.2,68,30.03,10.0,North,12.7,21.9,N/A,,Overcast,360,2013-09-15 18:55:00
2:15 PM,68.0,57.2,68,30.04,10.0,North,10.4,23.0,N/A,,Overcast,350,2013-09-15 19:15:00
2:35 PM,68.0,55.4,64,30.04,10.0,North,15.0,21.9,N/A,,Overcast,360,2013-09-15 19:35:00
2:55 PM,68.0,55.4,64,30.05,10.0,North,17.3,24.2,N/A,,Overcast,360,2013-09-15 19:55:00
3:15 PM,68.0,55.4,64,30.06,10.0,North,15.0,23.0,N/A,,Overcast,350,2013-09-15 20:15:00
3:35 PM,66.2,55.4,68,30.07,10.0,North,17.3,-,N/A,,Overcast,350,2013-09-15 20:35:00
3:55 PM,66.2,55.4,68,30.07,10.0,North,15.0,23.0,N/A,,Overcast,10,2013-09-15 20:55:00
4:15 PM,66.2,55.4,68,30.08,10.0,North,16.1,21.9,N/A,,Overcast,10,2013-09-15 21:15:00
4:35 PM,66.2,55.4,68,30.09,10.0,NNE,15.0,-,N/A,,Overcast,20,2013-09-15 21:35:00
4:55 PM,66.2,53.6,64,30.10,10.0,NNE,17.3,-,N/A,,Overcast,20,2013-09-15 21:55:00
5:15 PM,66.2,55.4,68,30.11,10.0,NNE,12.7,19.6,N/A,,Overcast,30,2013-09-15 22:15:00
5:35 PM,66.2,55.4,68,30.12,10.0,NNE,11.5,18.4,N/A,,Overcast,20,2013-09-15 22:35:00
5:55 PM,66.2,55.4,68,30.13,10.0,NNE,10.4,-,N/A,,Overcast,20,2013-09-15 22:55:00
6:15 PM,64.4,53.6,68,30.14,10.0,NNE,13.8,-,N/A,,Overcast,20,2013-09-15 23:15:00
6:35 PM,64.4,53.6,68,30.14,10.0,NE,11.5,18.4,N/A,,Overcast,40,2013-09-15 23:35:00
6:55 PM,64.4,53.6,68,30.15,10.0,NE,11.5,17.3,N/A,,Overcast,40,2013-09-15 23:55:00
7:15 PM,64.4,53.6,68,30.16,10.0,NE,9.2,-,N/A,,Overcast,40,2013-09-16 00:15:00
7:35 PM,64.4,53.6,68,30.16,10.0,NE,8.1,-,N/A,,Overcast,40,2013-09-16 00:35:00
7:55 PM,62.6,53.6,72,30.17,10.0,NE,5.8,-,N/A,,Overcast,40,2013-09-16 00:55:00
8:15 PM,62.6,55.4,77,30.18,10.0,NNE,5.8,-,N/A,,Overcast,20,2013-09-16 01:15:00
8:35 PM,62.6,53.6,72,30.19,10.0,NNE,5.8,-,N/A,,Overcast,20,2013-09-16 01:35:00
8:55 PM,62.6,53.6,72,30.20,10.0,NNE,5.8,-,N/A,,Overcast,20,2013-09-16 01:55:00
9:15 PM,62.6,53.6,72,30.21,10.0,NE,3.5,-,N/A,,Overcast,40,2013-09-16 02:15:00
9:35 PM,62.6,53.6,72,30.22,10.0,Calm,Calm,-,N/A,,Overcast,0,2013-09-16 02:35:00
9:55 PM,62.6,53.6,72,30.22,10.0,Calm,Calm,-,N/A,,Overcast,0,2013-09-16 02:55:00
10:15 PM,62.6,53.6,72,30.22,10.0,North,4.6,-,N/A,,Overcast,10,2013-09-16 03:15:00
10:35 PM,60.8,53.6,77,30.22,10.0,East,3.5,-,N/A,,Overcast,90,2013-09-16 03:35:00
10:55 PM,60.8,53.6,77,30.22,10.0,Calm,Calm,-,N/A,,Mostly Cloudy,0,2013-09-16 03:55:00
11:15 PM,59.0,53.6,82,30.23,10.0,Calm,Calm,-,N/A,,Clear,0,2013-09-16 04:15:00
11:35 PM,57.2,53.6,88,30.24,10.0,North,3.5,-,N/A,,Clear,10,2013-09-16 04:35:00
11:55 PM,55.4,51.8,88,30.24,10.0,North,3.5,-,N/A,,Clear,360,2013-09-16 04:55:00